Theta_e
346 344 343 345 355 358 363 365 359 361 356 347 343 345 346 345 353 356 343 343 343 347 348 350 350 350 350 346 343 349 348 349 350 347 343 343 351 346 344 350 349 350 351 350 351 351 349 350 351
346 344 346 354 360 368 367 359 362 360 352 344 347 345 353 354 348 344 344 342 344 347 348 350 349 350 344 347 344 349 349 349 348 350 350 349 346 350 349 348 350 350 351 352 347 351 352 346 347
344 346 355 362 364 367 362 360 360 356 346 348 354 350 353 352 345 342 343 343 345 348 349 351 349 349 350 350 346 349 347 348 348 346 346 347 347 347 350 350 350 351 351 350 351 352 351 346 345
345 348 352 363 366 363 359 358 357 351 353 353 353 356 348 346 342 345 342 344 346 348 349 348 349 351 351 350 347 349 347 349 350 347 348 350 347 350 350 350 350 349 351 351 352 347 346 346 346
349 351 363 366 366 361 355 354 356 356 358 355 352 354 350 346 348 342 343 345 346 349 350 351 350 352 349 350 350 350 347 349 347 346 348 350 351 350 350 349 349 350 350 349 348 349 346 345 347
354 354 365 367 364 359 358 353 355 359 357 353 352 353 353 348 344 343 343 345 347 349 350 351 350 351 351 349 350 348 347 347 346 350 350 347 349 345 349 347 348 348 349 350 349 345 346 347 346
355 361 363 364 362 361 361 355 356 357 357 355 349 356 350 347 344 344 344 347 348 350 350 351 351 353 351 351 348 349 349 346 350 346 347 348 344 350 349 349 345 348 350 350 346 348 346 345 345
354 359 364 362 362 357 358 357 355 355 356 349 349 355 352 347 345 345 346 348 349 350 349 348 349 352 351 351 350 349 348 350 345 346 348 349 349 347 345 346 348 348 349 350 348 346 346 344 343
352 364 365 361 363 363 357 357 355 353 352 349 350 349 346 346 346 345 348 349 350 349 350 352 351 351 352 352 352 350 351 346 348 349 348 348 349 347 347 346 348 349 350 348 345 345 346 345 344
358 364 360 356 358 362 358 358 356 353 354 355 353 349 348 348 345 346 347 348 348 351 351 351 351 352 352 351 352 352 349 351 351 350 349 349 349 347 347 348 348 348 347 344 343 344 344 345 348
358 363 356 356 357 357 358 358 355 352 357 354 355 351 348 347 345 347 347 347 347 349 350 350 351 352 351 352 349 348 350 349 349 344 346 348 348 349 348 347 347 347 346 348 347 346 346 346 346
359 354 353 354 357 357 359 356 358 356 355 350 351 349 348 348 347 347 346 346 345 348 350 351 351 351 352 350 347 349 349 349 347 348 343 342 347 348 349 347 348 347 346 345 344 346 342 345 344
353 352 347 347 355 356 357 357 358 357 351 351 350 349 348 348 347 347 345 344 346 347 349 350 352 352 352 350 349 349 349 348 348 348 344 341 345 344 345 344 346 346 346 347 344 346 346 346 347
342 343 339 340 346 357 358 359 355 355 349 351 352 352 351 349 347 345 345 345 345 346 348 348 349 351 351 348 346 349 349 348 348 346 346 341 340 339 343 345 345 344 345 344 345 344 346 348 347
339 336 345 355 351 356 355 362 359 355 351 352 352 350 349 347 346 345 343 344 345 347 348 348 349 349 349 341 344 347 348 348 350 347 345 345 344 343 343 345 347 345 343 343 344 344 345 347 347
331 330 334 358 356 356 356 362 357 354 353 354 350 350 350 349 347 346 343 343 344 346 348 348 347 349 348 345 341 345 348 350 351 348 346 345 345 344 345 345 344 344 344 344 348 348 348 347 346
331 339 333 359 357 358 359 361 357 356 355 355 352 351 349 348 347 347 346 343 343 344 346 347 348 348 348 340 345 344 345 346 348 347 346 345 345 345 345 345 344 344 345 347 345 348 347 347 347
339 334 331 347 360 359 361 360 359 356 355 358 355 352 351 349 348 347 346 345 342 343 346 347 348 347 346 345 343 347 349 347 347 346 346 344 346 346 345 344 344 344 344 344 344 345 344 346 347
330 332 332 330 349 352 353 357 361 360 356 358 356 354 351 349 347 347 346 344 342 342 346 348 348 346 346 345 347 350 349 350 348 347 345 345 346 345 344 345 345 345 346 345 343 345 347 347 344
330 332 332 330 334 337 342 356 359 359 358 357 356 353 351 349 348 346 346 345 343 342 345 348 348 346 345 347 349 349 349 349 349 346 347 345 345 346 345 343 345 344 347 342 343 342 347 347 343
331 334 331 331 329 357 357 363 361 358 358 357 354 351 349 349 348 345 345 345 345 344 345 347 347 348 344 347 349 348 348 348 349 348 349 346 346 346 346 345 346 344 346 347 344 342 345 347 345
336 329 329 331 331 331 355 350 360 360 360 358 358 354 351 349 347 345 344 344 345 345 346 347 347 346 347 344 348 350 350 349 350 349 349 349 346 348 347 346 346 346 344 343 342 342 343 343 346
333 329 330 331 330 336 350 345 348 359 362 359 356 357 354 350 348 347 343 343 344 345 346 347 347 346 347 347 347 349 350 350 350 350 348 348 348 349 349 348 346 345 346 346 344 342 343 343 344
328 325 323 323 325 330 343 335 333 341 339 339 352 353 355 352 348 346 345 344 344 344 346 347 348 348 345 346 348 348 349 349 349 350 351 351 352 354 351 348 349 346 347 344 346 346 345 347 347
327 327 329 329 328 333 324 332 336 336 338 343 348 344 352 353 351 347 346 345 345 345 345 346 348 348 348 345 348 349 350 348 345 347 351 351 352 352 353 350 347 347 348 348 347 345 346 346 349
328 328 329 332 330 330 324 331 334 330 338 345 347 348 346 352 352 350 346 345 345 345 346 346 347 347 348 348 347 347 349 349 348 349 349 351 351 351 351 349 349 348 348 348 347 350 351 348 349
321 326 321 324 321 328 326 327 326 335 342 343 345 346 348 350 348 351 348 345 345 345 346 346 347 348 348 347 349 347 346 347 348 349 346 349 347 350 347 348 349 349 348 348 349 351 347 347 349
319 316 325 325 330 330 328 332 331 343 342 341 343 343 345 347 350 350 350 346 345 345 345 346 347 347 346 347 348 348 348 347 348 346 346 349 348 347 351 350 350 348 349 349 350 351 349 349 352
317 318 319 323 323 329 330 331 338 339 337 339 340 340 341 348 349 351 349 346 346 345 345 345 346 346 347 347 347 347 347 346 348 349 346 347 347 348 349 350 350 351 349 350 350 351 354 352 355
313 313 314 327 327 323 327 329 332 335 333 333 336 336 338 340 345 348 348 346 345 345 345 344 345 346 346 346 346 345 347 346 347 346 345 344 345 348 348 349 352 354 354 352 350 351 353 350 353
Wind_Speed
11 9 5 1 2 1 1 2 3 4 8 3 19 7 10 5 1 1 12 13 24 21 17 16 15 14 14 13 14 15 12 14 11 12 13 13 11 12 10 11 11 10 11 11 12 12 13 12 13
11 7 1 1 2 1 1 2 4 5 8 20 9 14 4 4 3 9 16 21 24 20 17 15 16 13 13 13 13 13 11 12 11 12 11 11 11 10 11 10 11 11 11 11 10 12 10 12 14
10 1 1 2 1 2 2 3 5 5 20 10 5 5 3 3 4 22 15 26 22 18 16 15 16 13 12 12 12 12 10 11 10 10 11 11 10 12 13 11 11 11 11 11 11 10 10 12 14
4 2 1 2 7 5 5 5 3 18 10 6 9 6 4 2 18 10 26 25 22 17 15 15 14 13 11 11 11 10 9 9 9 9 12 11 12 12 13 13 11 12 11 11 11 10 10 10 12
1 1 2 4 6 5 4 6 4 10 5 6 2 5 7 6 7 25 26 22 22 18 15 14 14 13 11 10 9 9 9 9 9 9 10 11 12 13 12 13 12 12 12 12 12 10 13 14 15
1 1 2 4 5 3 6 7 5 4 4 4 9 9 5 10 21 24 23 20 18 18 16 14 14 13 12 11 9 9 8 8 9 11 10 10 11 12 12 12 12 12 12 12 12 12 11 13 14
1 2 3 5 3 3 5 9 4 5 7 2 9 6 7 15 23 21 21 19 17 15 15 14 12 11 12 9 9 9 9 9 8 9 11 10 12 12 11 12 13 11 12 12 12 12 14 13 13
2 2 3 1 1 4 5 4 2 5 2 12 10 5 10 18 24 21 20 18 16 14 13 13 12 10 10 9 10 9 9 9 8 10 11 11 13 12 12 13 13 12 12 11 11 12 13 13 10
3 2 2 6 1 4 13 7 1 5 10 4 7 8 19 28 25 23 20 17 16 14 13 13 12 11 10 10 10 9 9 9 10 10 11 11 11 11 11 13 12 11 11 11 11 11 11 10 11
2 2 2 5 4 10 11 7 9 6 8 7 12 19 29 25 26 23 20 18 17 16 15 13 12 12 12 10 11 9 9 8 9 9 10 10 11 11 11 11 11 10 10 10 9 8 7 8 6
2 2 2 5 5 14 16 12 6 11 6 8 20 25 26 26 25 22 21 20 18 16 15 14 14 12 12 11 11 10 10 9 9 10 10 10 10 10 9 9 10 9 9 7 5 5 4 5 4
3 6 6 1 7 10 13 13 8 2 4 11 20 24 25 21 23 23 21 20 19 17 15 15 14 14 12 11 11 11 11 10 9 8 9 10 8 9 8 8 8 8 6 5 3 3 3 5 5
7 6 4 6 10 6 13 9 9 6 12 18 22 21 21 20 21 18 18 17 18 17 16 16 15 15 13 12 11 11 10 9 8 7 6 7 7 9 8 8 7 6 5 4 4 4 4 6 5
2 8 9 2 9 10 11 9 9 8 16 18 20 19 18 20 22 18 18 19 19 18 17 17 16 15 14 13 14 11 9 8 6 5 6 7 7 7 8 7 5 4 4 5 3 4 5 6 5
5 6 3 8 10 5 11 11 8 18 17 20 20 17 17 18 20 21 22 20 20 18 18 18 17 16 16 17 15 11 9 7 5 4 4 4 3 5 4 4 3 2 2 2 2 3 4 5 7
3 1 2 3 8 5 4 4 8 19 18 17 17 17 17 18 23 20 18 18 19 18 19 18 17 17 16 17 16 12 10 6 4 3 3 3 3 4 3 2 3 3 3 2 2 2 3 5 6
1 5 4 4 4 6 4 5 8 13 17 16 16 18 18 18 20 20 19 20 21 20 20 20 19 19 18 19 16 12 10 8 5 4 3 3 3 5 4 3 4 4 3 2 3 4 4 5 5
7 5 4 5 8 5 8 4 9 11 12 17 18 18 18 18 19 23 21 20 21 20 19 19 19 18 19 18 16 11 9 9 8 5 5 3 2 5 4 4 5 3 2 1 2 2 4 3 2
5 6 4 3 5 3 4 4 9 12 12 14 17 18 18 19 22 23 23 21 19 18 20 21 20 20 20 18 15 11 11 11 10 9 7 5 2 4 5 6 6 5 4 2 2 3 3 2 2
4 4 3 2 4 3 2 2 6 10 11 14 17 19 19 18 17 22 23 22 23 25 23 21 21 23 23 18 16 10 11 10 11 13 10 7 5 6 5 9 7 6 5 5 4 2 2 2 3
5 6 3 2 1 3 4 4 5 6 7 9 16 17 19 19 19 17 23 26 26 24 25 26 27 23 25 19 14 13 10 7 9 11 11 11 7 5 5 6 7 6 5 4 6 3 3 3 4
10 7 4 3 2 1 2 2 2 8 12 11 14 20 18 21 20 17 24 27 27 29 27 25 27 28 25 25 18 15 14 12 10 11 13 10 10 7 7 7 8 6 5 5 5 5 2 3 3
5 4 5 2 4 3 4 2 5 4 8 11 12 16 21 21 22 22 25 29 32 29 27 28 28 29 28 26 24 20 17 13 10 10 12 11 10 9 8 9 9 9 8 8 6 5 4 3 3
9 6 4 4 3 5 5 3 8 5 7 8 12 17 20 23 22 23 29 28 28 28 26 24 25 28 31 29 26 25 20 16 13 11 11 11 10 8 10 9 9 10 8 9 7 7 6 5 3
7 9 5 6 5 5 2 3 7 9 11 11 14 13 21 21 20 20 22 25 26 26 25 24 24 26 26 30 28 28 23 22 20 16 13 12 12 10 11 12 9 9 10 8 7 8 8 7 4
14 11 6 10 8 7 2 8 7 11 13 14 18 15 9 19 19 20 24 28 27 27 27 27 27 29 27 26 32 33 28 22 21 20 16 14 13 12 12 13 11 11 8 8 8 8 8 7 6
6 8 2 5 1 8 4 3 6 16 19 21 20 18 13 6 17 20 23 27 28 28 28 29 29 29 29 31 29 32 32 29 23 21 21 16 15 12 14 14 13 12 11 10 9 9 9 8 7
2 4 6 3 9 9 4 3 4 17 19 18 20 18 16 8 10 16 21 25 27 28 29 28 29 30 36 33 30 28 27 29 27 25 23 20 18 17 13 15 15 13 13 13 12 9 10 10 9
1 3 3 2 2 6 7 4 6 8 11 14 17 17 17 16 1 8 14 19 22 23 24 26 26 26 27 28 30 29 27 27 25 24 25 24 21 19 16 15 15 15 15 15 15 14 11 11 10
7 3 1 7 5 2 1 5 5 8 10 12 14 16 17 18 17 13 7 6 16 18 19 23 24 24 26 28 27 31 28 27 25 28 27 27 27 23 21 16 14 15 15 16 16 17 14 14 12
Wind_Direction
145 146 138 174 208 191 255 117 149 140 151 149 149 158 166 126 167 84 145 148 147 146 144 141 138 132 126 118 111 106 103 105 98 94 98 107 105 108 120 106 106 108 105 105 105 106 103 105 99
147 141 151 122 238 185 6 49 114 96 124 136 125 136 135 98 76 121 139 150 148 145 145 144 141 135 129 119 114 108 101 103 100 100 99 101 105 107 108 119 113 108 108 103 98 105 107 100 100
147 62 248 244 178 155 191 65 359 86 137 137 115 80 69 81 111 141 141 148 145 145 144 143 146 147 135 127 117 111 113 112 106 96 100 105 98 101 105 103 102 104 106 109 104 107 107 109 103
166 182 204 253 235 163 155 137 81 120 114 72 114 70 83 282 140 150 146 148 144 144 141 144 145 151 142 135 122 118 113 110 105 99 98 97 92 92 93 92 99 103 102 103 98 99 99 95 114
172 193 258 260 279 101 145 146 111 141 99 62 95 98 97 116 125 141 145 150 145 143 141 141 147 143 143 143 132 123 116 113 110 101 100 98 93 94 92 91 93 98 99 101 99 99 101 96 100
160 292 277 341 52 101 103 144 127 78 92 105 105 102 87 131 137 146 148 150 148 143 142 140 142 142 147 142 138 132 129 119 111 107 97 97 96 97 94 96 93 96 102 101 100 93 97 99 89
328 283 321 313 97 82 98 124 122 126 122 163 136 101 117 145 146 149 148 148 149 146 145 142 144 147 143 138 140 133 128 119 111 106 109 99 100 90 91 97 101 103 101 103 102 96 88 97 86
273 274 290 250 224 106 126 90 96 108 153 135 159 155 159 157 151 149 146 148 150 153 151 147 149 151 145 147 140 138 129 117 115 101 102 103 96 94 94 92 95 101 104 106 99 89 92 97 91
253 279 330 30 188 107 130 111 237 276 145 149 172 141 140 149 149 148 146 152 152 158 155 152 153 154 148 141 140 137 123 115 105 108 117 110 105 97 88 94 95 104 110 106 97 92 96 86 80
236 278 352 7 108 131 114 134 159 167 130 84 108 123 138 147 153 154 156 158 163 164 162 158 154 153 147 144 142 130 130 118 114 113 118 110 108 104 100 96 98 103 107 108 100 100 96 75 66
211 239 28 35 93 145 141 155 195 154 175 177 154 144 148 151 160 161 164 166 170 171 168 165 161 158 152 154 147 138 131 124 118 121 118 114 113 110 108 107 106 109 112 109 102 89 79 44 23
268 248 273 238 145 147 151 153 144 144 74 142 151 146 152 157 168 170 168 172 166 177 174 168 167 162 158 157 149 144 135 129 123 121 123 123 118 118 117 115 112 110 112 106 102 81 52 4 4
237 272 260 238 178 140 138 164 125 116 132 138 144 148 158 161 171 175 172 173 169 176 179 177 172 169 163 163 154 148 140 132 132 124 118 127 125 125 124 123 114 111 111 98 84 74 38 14 22
294 275 301 291 193 155 156 144 135 160 145 147 157 159 166 169 170 171 178 181 179 177 181 180 177 175 170 169 165 159 152 147 138 125 122 119 124 132 138 134 120 108 100 107 80 28 20 20 46
284 287 88 53 147 156 154 155 196 152 154 157 167 167 170 176 177 184 184 187 184 180 178 182 179 178 177 175 172 168 162 157 151 152 154 157 129 176 174 154 138 135 122 97 54 42 34 43 79
240 257 184 90 160 154 202 129 137 161 164 165 169 179 178 185 191 192 187 191 188 181 184 183 181 183 182 181 179 175 173 177 179 181 201 205 220 204 174 178 180 157 135 93 67 70 65 74 78
170 159 115 129 187 161 205 112 137 170 179 166 180 188 187 191 197 198 192 194 190 188 184 188 185 188 186 183 180 185 191 192 202 212 194 211 245 231 241 224 179 156 135 95 65 73 87 78 72
161 146 111 120 178 183 191 182 157 178 176 180 192 188 192 195 200 201 197 192 194 192 191 192 189 189 188 184 188 191 202 212 213 203 210 226 248 227 244 188 184 185 166 95 71 103 102 85 56
123 131 127 88 140 220 236 248 187 174 175 186 192 190 193 196 199 202 200 191 188 193 194 193 193 191 191 189 187 196 209 214 216 215 207 213 233 238 227 217 210 211 199 185 135 108 152 81 51
157 150 150 69 57 241 299 145 184 182 186 187 184 191 196 200 193 200 196 190 191 193 197 193 197 195 196 196 190 193 199 218 220 218 212 212 223 230 248 223 214 208 200 201 199 154 135 148 150
183 199 176 101 16 101 141 138 162 185 169 180 194 190 195 201 198 194 194 195 198 196 200 198 200 201 199 201 201 204 200 205 197 212 219 212 219 217 207 186 200 212 196 197 197 197 195 181 194
211 199 201 193 286 181 307 89 166 182 194 198 188 202 198 201 202 194 196 197 199 205 202 205 201 205 206 207 207 208 203 192 195 202 206 207 215 212 208 205 207 212 204 197 196 199 197 163 159
207 158 193 175 199 227 170 233 91 161 213 228 219 208 211 203 202 200 197 202 202 206 205 204 206 208 208 210 209 212 218 212 203 199 203 204 212 210 212 212 209 224 228 223 209 205 205 205 181
147 113 93 105 174 203 148 263 56 35 348 326 238 214 210 207 204 205 203 202 204 205 208 206 206 211 211 215 214 215 216 214 206 204 204 211 210 211 217 213 212 214 217 212 218 222 223 217 209
167 178 150 179 197 184 124 181 61 33 20 355 336 254 211 207 202 200 202 202 205 203 202 206 206 210 213 215 216 215 219 222 217 211 207 200 206 214 218 218 214 218 220 226 229 232 233 234 220
193 200 195 179 187 158 179 160 113 44 26 18 20 14 211 205 205 206 202 200 201 202 202 203 205 210 211 215 218 219 221 222 225 220 212 213 216 217 221 221 220 215 228 232 231 228 224 230 233
153 201 46 105 70 186 136 128 183 16 18 16 18 16 12 249 212 209 201 200 200 203 205 203 206 208 211 213 217 220 223 224 226 226 226 223 228 225 222 218 219 223 229 229 238 235 237 234 234
358 110 175 215 168 184 117 104 28 1 4 4 8 12 1 326 247 214 210 203 200 203 207 208 212 208 211 212 215 221 222 227 227 229 231 227 229 229 225 223 225 222 233 229 233 236 238 235 237
73 125 62 104 332 182 162 128 21 22 13 4 5 9 15 20 178 211 207 210 204 203 206 211 213 215 214 214 215 215 220 225 230 230 229 229 230 228 234 231 226 225 227 231 230 232 227 228 229
47 63 8 218 182 55 334 114 30 50 41 19 20 17 22 36 42 41 26 209 193 203 208 212 215 216 217 217 217 219 223 222 223 229 231 231 232 231 233 238 236 223 223 228 230 231 229 237 229